www.pogodaiklimat.ru
ПОГОДА в Ориндже
Время
и дата
06:52 24.09
07:52 24.09
08:52 24.09
09:52 24.09
10:52 24.09
11:52 24.09
12:52 24.09
13:52 24.09
14:52 24.09
15:52 24.09
16:52 24.09
17:52 24.09
18:52 24.09
19:52 24.09
20:52 24.09
21:52 24.09
22:52 24.09
23:52 24.09
00:52 25.09
01:52 25.09
02:52 25.09
03:52 25.09
04:17 25.09
04:52 25.09
05:52 25.09
06:52 25.09
07:52 25.09
08:52 25.09
09:52 25.09
10:52 25.09
11:52 25.09
12:52 25.09
13:52 25.09
14:52 25.09
15:52 25.09
16:52 25.09
17:10 25.09
17:27 25.09
17:36 25.09
17:52 25.09
18:52 25.09
19:00 25.09
19:33 25.09
19:41 25.09
19:52 25.09
20:52 25.09
21:52 25.09
22:52 25.09
Ветер
(напр.,м/с)
Видим. Явления Облачность Т
(С)
Тd
(С)
f
(%)
Тe
(С)
Тes
(С)
Комфортность P
(гПа)
Po
(гПа)
Тmin
(С)
Tmax
(С)
R
(мм)
R24
(мм)
S
(см)
нст 3 16 км ясно +8.3 +1.7 63 +6 +6 1014.1 993.6 +2.2 +8.3
СЗ 5 16 км ясно +9.4 +2.2 61 +6 +7 1014.4 993.9
С 6
{10}
16 км ясно +12.2 +1.7 49 +10 +11 1014.6 994.3
СЗ 8
{12}
16 км ясно +14.4 +1.7 42 +12 +13 1014.2 993.6
СЗ 6 16 км ясно +15.6 +2.2 40 +14 +18 1013.8 993.3
СЗ 5
{10}
16 км ясно +17.2 +2.8 38 +17 +22 1013.4 992.9
СЗ 6
{10}
16 км ясно +18.9 +2.8 34 +19 +23 1012.7 992.3 +8.3 +18.9
СЗ 5 16 км ясно +18.9 +3.3 35 +19 +24 1012.2 991.6
СЗ 6 16 км ясно +18.9 +3.3 35 +19 +22 1011.5 991.0
СЗ 5 16 км ясно +18.9 +3.9 37 +19 +22 1011.1 991.0
З 5 16 км ясно +17.8 +5.6 45 +17 +19 1011.1 990.6
З 2 16 км ясно +15.6 +5.6 51 +16 +16 1011.2 991.0
Ю 2 16 км ясно +10.6 +7.2 79 +9 +9 1011.4 991.0 +10.6 +19.4
штиль 0 16 км ясно +9.4 +7.2 86 +9 +9 1011.8 991.3
штиль 0 16 км ясно +8.3 +6.7 90 +7 +7 1011.8 991.3
штиль 0 16 км ясно +7.2 +6.1 93 +6 +6 1011.8 991.3
штиль 0 16 км ясно +6.1 +5.0 93 +5 +5 1012.0 991.6
штиль 0 16 км ясно +6.1 +5.0 93 +5 +5 1011.8 991.3
штиль 0 16 км ясно +5.6 +4.4 92 +5 +5 1011.8 991.3 +5.6 +10.6
штиль 0 16 км ясно +6.1 +5.0 93 +5 +5 1011.4 991.0
штиль 0 16 км ясно +6.7 +5.6 93 +6 +6 1010.8 990.3
штиль 0 16 км ясно +6.7 +5.6 93 +6 +6 1010.6 990.3
штиль 0 16 км 2/2 150 м +7.2 +5.6 90 +6 +6 990.3
штиль 0 16 км 5/0 3600 m
[Ac]
+6.7 +5.6 93 +6 +6 1010.2 990.0
штиль 0 13 км ясно +6.1 +5.0 93 +5 +5 1010.2 990.0
штиль 0 16 км ясно +7.8 +6.1 89 +7 +7 1010.1 989.6 +5.0 +7.8
штиль 0 16 км ясно +10.0 +7.8 86 +9 +10 1009.6 989.3
штиль 0 16 км 8/8 1950 м +12.8 +9.4 80 +12 +13 1009.3 989.0
Ю 4 16 км 10/10 1950 м +15.6 +9.4 67 +15 +15 1008.4 988.3
Ю 4 16 км 8/2 1950 m
[Ac]
+15.6 +8.3 62 +15 +17 1007.6 987.3
Ю 4 16 км 8/0 3300 m
[Ac]
+17.2 +8.9 58 +17 +20 1006.9 986.6
Ю 5 16 км слабый дождь 10/0 2400 m
[Ac]
+16.7 +10.6 67 +16 +18 1006.2 986.0 +7.8 +17.2
Ю 4 16 км слабый дождь 10/8 1800 m
[Ac]
+16.7 +11.7 72 +16 +17 1005.6 985.3
ЮВ 3 16 км слабый дождь 10/8 1800 m
[Ac]
+15.6 +13.3 86 +15 +15 1004.7 984.3
штиль 0 16 км 10/2 1800 m
[Ac]
+16.1 +13.3 83 +16 +18 1003.8 983.7 0.3
ЮВ 2 16 км 10/8 630 m
[Ac]
+16.7 +13.9 84 +17 +17 1003.4 983.3
штиль 0 16 км слабый дождь 10/10 570 м +16.7 +14.4 86 +17 +17 983.0
нст 2 16 км 10/10 420 м +16.7 +14.4 86 +17 +17 983.0
нст 2 16 км 10/8 420 m
[Ac]
+16.7 +14.4 86 +17 +17 982.7
Ю 3 16 км 10/2 1950 m
[Ac]
+16.7 +14.4 86 +16 +17 1002.9 982.7
штиль 0 16 км 5/5 540 м +16.7 +14.4 86 +17 +17 1002.6 982.3 +15.6 +17.2 0.3
штиль 0 16 км 8/8 570 м +15.6 +14.4 93 +15 +15 982.3
штиль 0 13 км 10/10 420 м +15.0 +14.4 96 +15 +15 982.7
штиль 0 16 км 8/8 480 м +15.0 +13.9 93 +15 +15 982.7
штиль 0 16 км 5/5 480 м +15.0 +13.9 93 +15 +15 1002.6 982.7
Ю 5 16 км 8/0 2850 m
[Ac]
+16.7 +14.4 86 +16 +16 1002.5 982.3
Ю 4 16 км 10/0 3000 m
[Ac]
+16.7 +14.4 86 +16 +16 1002.3 982.3
Ю 5 16 км 10/0 2100 m
[Ac]
+16.7 +13.9 84 +16 +16 1002.2 982.0
Местоположение метеостанции Orange Municipal Airport: широта 42.5717 долгота -72.2775 высота над уровнем моря 169 м.
В архиве по умолчанию представлена погода в Ориндже за последние 1-2 суток. Обновление информации о фактической погоде в базе происходит ежечасно! Архивные данные за месяц целиком и за предыдущие месяцы Вы можете получить, выбрав интересующий диапазон дат из раскрывающегося списка и нажав кнопку "Ввод!".
Внимание! Архив погоды МЕТАР в базе сайта по станциям, не включенным в климатический монитор, хранится не более 60 дней. Нет смысла пытаться выбрать более раннюю дату.
*Определитесь, кто Вы:
Внимание! Время в таблицах - местное (без учета летнего времени). Для получения всемирного времени необходимо вычесть поправку, которая равна -5 ч.
Смотрите также архив погоды в соседних городах и на ближайших метеорологических станциях:
Партнеры нашего сайта:      
Пояснения к столбцам:
  • Ветер - указаны скорость ветра в м/с - средняя за 10 мин, порывы в срок и между сроками (в фигурных скобках) и направление, откуда дует ветер: С - северный,
  • СВ - северо-восточный, В - восточный, ЮВ - юго-восточный, Ю - южный, ЮЗ - юго-западный, З - западный, СЗ - северо-западный.
  • Видимость - горизонтальная дальность видимости в метрах или километрах. При видимости от 1 до 10 км при отсутствии осадков обычно наблюдается дымка, при ухудшении видимости до 1 км и менее - туман. В сухую погоду видимость может ухудшаться дымом, пылью или мглою.
  • Явления - указаны атмосферные явления, наблюдавшиеся в срок или в последний час перед сроком; фигурными скобками обозначены явления, наблюдавшиеся между сроками (за 1-3 часа до срока); квадратными скобками обозначены град или гололедные отложения с указанием их диаметра в мм.
  • Облачность - указаны через наклонную черту общая и нижняя облачность в баллах и высота нижней границы облаков в метрах; квадратными скобками обозначены формы облаков: Ci - перистые, Cs - перисто-слоистые, Cc - перисто-кучевые, Ac - высококучевые, As - высокослоистые, Sc - слоисто-кучевые, Ns - слоисто-дождевые, Cu - кучевые, Cb - кучево-дождевые. Подробнее классификацию облаков см. в Атласе облаков (PDF).
  • T - Температура воздуха - температура, измеренная на высоте 2 м над землей.
  • Td - Температура точки росы - температура, при понижении до которой содержащийся в воздухе водяной пар достигнет насыщения.
  • f - Относительная влажность воздуха - влажноcть воздуха, измеренная на высоте 2 м над землей.
  • Te - Эффективная температура - температура, которую ощущает одетый по сезону человек в тени. Характеристика душности погоды. При расчете учитывается влияние влажности воздуха и скорости ветра на теплоощущения человека.
  • Tes - Эффективная температура на солнце - температура, которую ощущает человек, с поправкой на солнечный нагрев. Характеристика знойности погоды. Зависит от высоты солнца над горизонтом, облачности и скорости ветра. Ночью, в пасмурную погоду, а также при ветре 12 м/с и более поправка равна нулю.
  • P - Атмосферное давление - приведенное к уровню моря атмосферное давление.
  • Po - Атмосферное давление - измеренное на уровне метеостанции атмосферное давление.
  • Tmin - Минимальная температура - минимум температуры воздуха на высоте 2 м над землей.
  • Tmax - Максимальная температура - максимум температуры воздуха на высоте 2 м над землей.
  • R - Количество осадков - Количество выпавших осадков за период времени, мм. При наведении курсора мыши на число - период времени, за который выпало указанное количество осадков.
  • R24 - Количество осадков - Количество выпавших осадков за 24 часа, мм.
  • S - Снежный покров - Высота снежного покрова, см. При наведении курсора мыши на число - состояние снежного покрова и степень покрытия местности в баллах.